Wind_Speed
9 9 9 9 9 8 7 6 6 7 8 8 7 6 6 6 6 6 6 7 7 7 7 7 7 6 5 5 5 5 6 6 6 5 5 6 6 5 5 5 5 5 4 4
10 10 9 10 9 8 8 7 7 7 8 8 6 6 5 6 6 6 7 7 7 7 7 6 6 6 5 5 5 5 6 5 5 5 5 5 5 5 4 3 3 3 3 3
11 10 10 9 9 8 8 8 8 8 7 7 7 6 6 6 6 7 7 7 7 6 6 5 5 5 5 5 5 6 6 5 6 5 5 5 5 4 4 4 3 3 3 3
12 11 10 10 9 9 9 8 8 8 7 7 6 6 6 7 6 7 7 7 7 6 5 5 5 5 5 5 5 6 6 5 5 5 4 4 4 4 4 4 3 3 3 4
12 11 11 11 10 10 9 9 9 8 8 8 7 7 6 7 6 6 6 6 6 6 5 5 5 5 5 5 5 5 5 5 5 4 4 4 4 4 3 3 3 3 3 4
13 12 12 11 11 11 10 9 9 9 10 9 8 8 7 7 7 7 6 5 5 6 5 5 5 5 5 5 5 5 5 5 5 5 4 4 4 3 3 3 4 4 3 3
14 13 13 12 12 12 11 11 11 11 11 10 9 9 8 8 8 7 6 6 6 6 6 5 5 5 5 5 6 6 5 5 6 5 5 4 4 4 4 4 4 4 4 4
16 15 14 13 13 13 12 12 12 12 11 10 10 9 9 8 8 8 7 6 6 6 6 6 6 6 6 6 6 6 6 5 5 5 5 4 4 5 4 5 5 5 5 5
16 15 15 15 14 14 14 13 13 13 13 12 11 10 8 8 9 8 8 8 7 7 6 6 6 6 6 6 6 6 6 6 6 5 4 4 5 5 5 5 5 5 5 5
16 16 15 15 16 15 15 14 14 14 14 13 12 11 9 9 9 9 9 9 9 8 7 7 6 6 7 7 7 6 6 6 6 5 5 5 5 5 5 5 6 5 5 6
17 17 17 17 16 16 15 15 15 15 15 14 14 12 11 11 11 10 10 10 10 10 9 8 7 7 7 7 7 7 8 8 7 6 6 5 5 5 6 6 6 6 6 6
18 18 18 18 17 16 16 15 15 16 15 15 15 13 13 13 12 12 12 12 11 10 10 9 9 8 8 8 9 9 9 9 8 8 7 6 6 6 6 7 7 6 6 7
19 19 19 19 18 17 16 16 16 16 17 17 17 15 14 14 14 13 13 12 12 12 11 10 10 10 10 10 10 9 9 9 9 8 8 8 7 7 7 7 7 7 8 8
21 21 20 20 18 18 17 17 17 17 17 18 17 16 15 15 15 15 14 13 12 12 12 12 11 11 11 10 10 10 10 10 9 9 9 9 8 8 8 8 8 9 9 9
22 22 21 21 20 19 19 19 19 18 18 18 17 17 17 17 17 16 16 16 15 14 14 14 13 12 12 12 12 11 11 10 10 10 10 9 9 10 10 10 10 10 10 10
23 23 22 22 21 22 22 21 20 20 19 19 18 18 18 19 18 18 17 17 18 17 17 16 15 14 14 13 13 13 12 12 11 11 11 11 10 11 11 11 11 11 11 11
25 24 24 23 23 24 23 22 22 21 21 21 21 20 20 20 20 20 19 19 19 18 18 17 17 17 16 15 14 14 13 13 13 12 12 12 12 12 12 12 12 11 11 11
26 26 26 25 25 26 23 23 23 23 23 23 22 22 22 22 21 21 20 20 20 20 19 19 19 18 17 16 16 15 15 14 13 13 13 13 13 13 13 13 13 12 12 12
27 27 27 26 26 25 23 22 23 24 24 23 22 23 23 23 22 22 21 21 21 21 20 20 20 20 19 19 18 18 17 16 15 15 15 14 14 14 14 14 14 14 14 14
29 29 29 28 27 26 23 23 23 25 23 21 22 22 23 23 22 22 22 22 22 21 21 21 21 21 21 20 20 20 19 18 17 16 16 16 15 15 15 15 15 15 16 15
29 30 30 29 29 29 25 24 25 25 23 22 22 22 23 23 23 23 23 23 22 22 23 23 23 23 22 22 22 22 21 20 19 19 18 18 17 17 17 17 17 17 17 16
30 31 30 30 30 29 26 25 26 25 24 23 22 22 23 23 23 24 24 24 24 24 24 25 25 25 25 24 23 23 22 21 21 21 20 20 19 19 19 19 18 18 18 18
30 30 30 30 30 29 28 27 26 26 26 25 24 23 24 25 25 25 25 25 25 26 26 26 26 26 26 26 25 24 23 23 23 22 22 22 22 21 21 21 20 20 20 20
29 29 29 29 30 29 28 28 28 28 28 27 26 25 25 26 26 26 26 26 26 26 27 27 27 27 27 28 27 27 26 25 25 25 25 24 23 23 23 23 23 22 22 22
28 29 29 30 30 30 29 29 29 29 28 28 28 27 27 27 27 26 26 26 25 26 27 27 28 28 28 29 28 28 28 27 26 26 26 25 24 24 24 25 25 24 24 24
27 28 29 29 29 30 29 29 30 29 29 29 28 28 28 27 26 27 27 26 26 26 26 27 28 29 29 29 29 28 28 28 27 26 26 26 25 25 25 25 26 26 26 26
Wind_Direction
262 266 269 271 272 276 283 292 294 296 298 299 300 296 302 310 311 317 320 324 328 328 324 322 321 322 318 317 324 328 329 324 322 321 316 312 306 305 307 319 311 305 302 285
260 265 267 268 270 272 275 280 289 293 293 293 295 301 304 309 311 315 319 318 320 325 326 326 324 325 324 322 323 325 324 323 323 318 318 320 323 322 320 324 329 322 313 299
259 261 261 262 264 268 272 275 280 289 294 292 288 289 301 307 310 314 321 321 320 324 327 328 327 329 332 335 330 325 321 320 320 315 314 320 324 332 329 327 327 330 311 301
256 258 258 259 260 265 268 273 276 279 286 289 293 298 299 300 306 310 318 324 323 322 326 330 330 329 337 339 332 328 325 324 328 321 309 313 320 330 331 328 323 314 307 306
255 255 256 256 259 263 268 271 271 271 277 282 290 296 300 299 302 304 310 316 320 322 325 326 328 330 335 339 332 325 324 318 320 326 316 312 311 319 327 337 335 319 304 307
253 253 254 255 257 261 265 270 270 269 272 276 283 290 296 297 299 305 307 309 313 321 329 328 325 325 330 335 333 326 321 314 312 318 314 310 307 308 312 322 330 330 323 312
252 252 253 255 257 261 264 269 271 272 275 278 279 282 286 295 296 299 299 302 310 318 323 326 325 324 327 330 329 324 319 309 305 305 302 299 301 303 302 310 317 317 314 307
252 252 253 255 256 261 263 266 269 273 276 276 276 281 284 289 293 294 295 300 303 311 315 318 320 323 325 325 323 323 321 319 308 301 299 301 301 298 294 301 307 307 304 301
252 251 251 254 257 259 261 263 266 270 273 273 274 277 279 284 292 290 293 295 297 301 305 308 308 312 316 313 312 315 315 313 314 308 303 301 301 298 293 293 293 296 297 296
251 251 250 252 255 257 259 260 263 266 271 272 274 274 274 281 287 289 292 295 298 295 295 297 298 303 307 309 310 310 311 311 311 307 302 299 297 292 291 293 288 288 293 294
249 251 251 251 253 255 256 257 260 264 267 270 274 273 273 276 282 285 290 292 293 293 285 285 288 295 301 301 305 308 307 304 303 300 294 284 288 290 292 291 284 286 289 291
247 249 249 251 253 253 255 258 261 263 265 269 273 271 270 273 280 287 290 288 286 288 281 279 282 289 295 299 300 301 301 301 297 292 291 287 281 283 288 295 292 290 290 290
245 248 248 249 251 251 254 257 259 261 263 266 269 270 270 270 275 282 285 284 280 280 276 274 278 282 288 294 295 296 296 295 292 288 284 286 285 282 284 290 292 293 294 292
245 248 250 251 252 253 254 256 258 260 263 266 267 269 267 268 272 274 275 279 279 278 275 272 275 278 282 288 291 293 293 290 287 286 284 282 280 281 282 285 290 291 291 291
245 248 250 250 252 254 254 256 258 261 264 267 269 269 268 267 267 268 268 271 273 274 272 272 273 273 277 281 285 288 290 287 282 282 283 282 282 280 281 282 282 286 290 290
246 249 250 252 253 254 255 256 258 262 264 267 268 267 267 265 268 267 266 269 272 272 270 269 270 271 274 279 281 283 285 282 278 279 280 280 281 281 280 281 281 283 285 285
248 249 251 253 254 256 256 258 258 259 262 265 268 271 269 267 267 268 269 269 272 272 270 268 267 269 271 273 275 278 281 279 275 276 278 277 278 281 281 281 282 282 282 283
250 250 252 254 254 255 260 260 260 260 261 264 266 268 268 267 266 267 270 269 269 270 270 266 265 266 269 271 271 273 276 277 276 276 277 276 277 279 280 280 279 278 278 281
253 252 253 255 257 258 259 261 262 262 262 263 264 264 265 265 265 266 267 266 267 268 267 268 266 266 267 268 269 270 274 275 275 275 274 274 274 276 277 278 277 276 276 279
254 255 255 257 258 259 260 261 262 264 264 264 262 262 264 264 264 266 266 266 266 266 265 266 267 266 266 267 267 268 270 270 271 272 272 273 276 277 275 275 275 275 275 274
253 255 255 256 258 259 260 260 261 262 265 263 262 262 262 263 264 265 264 265 265 266 266 265 267 266 265 266 267 266 267 268 267 267 269 271 274 275 273 273 274 274 274 273
254 255 254 256 257 259 260 258 259 261 263 262 262 263 263 264 265 265 266 266 266 266 266 266 266 265 265 265 266 265 266 267 267 267 266 267 269 273 274 273 272 272 273 272
255 256 256 256 258 259 258 258 259 259 260 261 263 264 264 264 266 266 267 268 268 266 266 265 265 265 265 265 265 266 266 266 266 266 266 266 266 268 270 270 270 270 272 273
254 255 255 256 256 259 258 257 258 259 261 262 263 264 264 264 265 266 267 268 268 268 266 265 264 263 264 265 265 264 264 265 264 263 264 266 266 266 267 267 267 270 271 274
253 254 255 256 257 258 257 258 259 260 261 262 262 264 265 266 266 265 266 266 267 267 267 266 265 264 264 265 265 264 263 264 264 263 263 263 264 266 267 267 267 268 270 273
255 255 256 257 258 258 257 258 259 260 260 261 262 263 264 266 267 267 267 267 267 267 267 268 267 265 265 265 264 264 264 264 264 263 263 262 265 268 269 268 267 268 269 271
Height
5861 5863 5863 5863 5863 5863 5863 5863 5863 5862 5861 5861 5861 5860 5860 5859 5858 5857 5857 5856 5855 5854 5852 5851 5850 5849 5848 5847 5846 5846 5845 5844 5843 5843 5842 5841 5840 5839 5839 5838 5837 5837 5836 5836
5860 5860 5861 5861 5861 5861 5861 5861 5861 5861 5860 5860 5859 5859 5858 5858 5857 5857 5856 5855 5853 5852 5851 5850 5849 5848 5847 5846 5846 5845 5844 5843 5843 5842 5841 5840 5839 5839 5838 5837 5837 5836 5836 5835
5857 5859 5858 5859 5859 5860 5860 5860 5860 5859 5859 5858 5859 5858 5858 5857 5856 5855 5854 5853 5852 5852 5850 5849 5848 5848 5847 5846 5845 5844 5844 5843 5842 5841 5841 5840 5839 5838 5837 5837 5836 5836 5835 5835
5854 5855 5856 5857 5857 5858 5858 5858 5858 5858 5858 5857 5858 5857 5857 5856 5855 5854 5853 5853 5852 5851 5850 5849 5848 5847 5846 5845 5844 5844 5843 5842 5841 5841 5840 5839 5839 5838 5837 5836 5836 5835 5835 5834
5852 5853 5854 5855 5856 5856 5856 5856 5856 5856 5856 5856 5856 5856 5856 5855 5854 5854 5853 5852 5851 5850 5849 5848 5847 5846 5845 5844 5844 5843 5842 5842 5841 5840 5839 5839 5838 5837 5837 5836 5835 5835 5834 5834
5849 5850 5851 5852 5853 5854 5854 5854 5854 5854 5854 5855 5855 5855 5855 5854 5853 5852 5852 5851 5850 5849 5848 5847 5846 5845 5844 5844 5843 5842 5841 5841 5840 5839 5839 5838 5838 5837 5836 5836 5835 5834 5834 5833
5847 5848 5849 5850 5850 5851 5852 5853 5853 5852 5852 5853 5853 5853 5853 5852 5851 5851 5851 5850 5849 5848 5847 5846 5845 5845 5844 5843 5842 5841 5840 5840 5839 5838 5838 5837 5837 5836 5836 5835 5835 5834 5833 5833
5843 5845 5846 5847 5848 5849 5849 5850 5851 5851 5850 5851 5851 5851 5852 5851 5850 5849 5849 5849 5848 5847 5846 5845 5845 5844 5843 5842 5841 5840 5840 5839 5838 5838 5837 5836 5836 5836 5835 5835 5834 5833 5833 5832
5839 5842 5843 5844 5845 5846 5846 5846 5848 5848 5847 5848 5848 5849 5850 5849 5848 5848 5847 5847 5846 5845 5845 5844 5843 5843 5842 5841 5840 5839 5839 5838 5838 5837 5836 5836 5835 5835 5834 5834 5833 5833 5832 5831
5836 5838 5839 5840 5841 5842 5843 5843 5844 5844 5844 5844 5845 5846 5848 5847 5846 5846 5845 5845 5844 5844 5843 5843 5842 5841 5841 5840 5839 5838 5837 5837 5836 5836 5835 5834 5834 5834 5833 5833 5832 5832 5831 5831
5831 5834 5835 5836 5837 5839 5840 5840 5840 5840 5841 5841 5842 5846 5845 5844 5844 5844 5843 5843 5842 5841 5841 5841 5840 5840 5839 5838 5838 5837 5836 5835 5835 5834 5834 5833 5833 5832 5832 5831 5831 5831 5830 5830
5827 5829 5830 5832 5834 5834 5835 5836 5837 5838 5838 5838 5839 5843 5841 5841 5841 5841 5840 5840 5839 5839 5838 5838 5838 5838 5838 5837 5836 5836 5835 5834 5833 5833 5832 5832 5831 5831 5831 5830 5830 5829 5828 5828
5822 5824 5826 5828 5831 5831 5831 5832 5833 5833 5834 5834 5835 5839 5837 5837 5837 5837 5837 5836 5836 5836 5836 5835 5835 5835 5835 5835 5834 5834 5833 5832 5831 5831 5831 5830 5830 5829 5829 5828 5828 5827 5827 5826
5817 5819 5822 5824 5825 5826 5827 5828 5829 5829 5829 5830 5831 5832 5833 5833 5833 5833 5833 5833 5833 5832 5832 5832 5832 5832 5832 5832 5832 5831 5831 5830 5829 5829 5828 5828 5828 5827 5827 5826 5826 5825 5825 5824
5812 5814 5816 5817 5819 5821 5822 5823 5824 5825 5825 5826 5827 5828 5829 5829 5829 5829 5829 5829 5829 5829 5829 5829 5829 5829 5829 5829 5829 5828 5828 5827 5827 5826 5826 5826 5825 5825 5824 5824 5823 5823 5822 5822
5806 5808 5810 5812 5814 5815 5816 5818 5819 5820 5821 5821 5822 5823 5824 5824 5824 5824 5824 5825 5825 5824 5825 5825 5825 5825 5825 5825 5825 5825 5824 5824 5824 5823 5823 5823 5822 5822 5822 5821 5820 5820 5819 5819
5800 5802 5804 5806 5808 5808 5810 5813 5814 5815 5816 5816 5817 5819 5818 5818 5819 5819 5819 5819 5820 5820 5820 5820 5821 5821 5821 5821 5821 5821 5821 5820 5820 5820 5819 5819 5819 5819 5818 5818 5817 5817 5816 5816
5794 5796 5797 5799 5802 5802 5808 5807 5808 5808 5809 5810 5811 5812 5812 5812 5813 5814 5814 5814 5815 5815 5815 5815 5816 5816 5816 5816 5816 5817 5817 5816 5816 5816 5816 5815 5815 5815 5815 5814 5814 5813 5813 5812
5788 5789 5791 5792 5793 5795 5800 5801 5801 5801 5803 5804 5805 5805 5806 5806 5807 5808 5809 5809 5809 5809 5809 5810 5810 5810 5811 5811 5811 5812 5812 5812 5812 5811 5811 5811 5811 5811 5810 5810 5810 5809 5809 5809
5781 5782 5785 5786 5786 5788 5794 5795 5794 5796 5796 5798 5798 5799 5800 5800 5801 5802 5802 5802 5803 5803 5803 5804 5804 5804 5805 5805 5806 5806 5806 5807 5807 5807 5806 5806 5806 5806 5806 5806 5805 5805 5805 5804
5773 5774 5776 5778 5778 5781 5787 5787 5788 5789 5791 5792 5792 5792 5793 5794 5795 5796 5795 5796 5796 5796 5797 5797 5798 5798 5799 5799 5799 5800 5800 5800 5801 5801 5801 5801 5801 5801 5801 5801 5800 5800 5800 5799
5765 5767 5768 5770 5771 5776 5779 5779 5780 5782 5783 5784 5785 5786 5787 5787 5788 5788 5788 5788 5789 5789 5790 5790 5791 5791 5792 5792 5793 5793 5793 5794 5794 5794 5795 5795 5795 5795 5795 5795 5795 5795 5794 5794
5757 5760 5761 5763 5766 5768 5769 5771 5772 5774 5775 5777 5778 5779 5780 5780 5781 5781 5781 5781 5781 5782 5782 5783 5783 5783 5784 5784 5785 5786 5786 5786 5787 5787 5788 5788 5789 5789 5789 5789 5789 5789 5789 5788
5749 5751 5752 5754 5757 5758 5760 5762 5764 5766 5767 5769 5770 5771 5772 5773 5773 5773 5774 5774 5774 5774 5774 5774 5775 5775 5776 5776 5777 5778 5778 5779 5779 5780 5780 5781 5781 5781 5782 5782 5782 5782 5782 5782
5741 5742 5744 5745 5748 5750 5752 5754 5755 5757 5759 5761 5762 5763 5764 5764 5765 5765 5766 5766 5765 5766 5766 5766 5766 5766 5767 5768 5768 5769 5770 5770 5771 5772 5773 5773 5773 5773 5774 5774 5774 5774 5774 5774
5734 5735 5736 5738 5741 5742 5744 5745 5747 5749 5750 5752 5753 5754 5755 5756 5756 5757 5757 5757 5757 5757 5757 5757 5757 5757 5758 5758 5759 5760 5761 5761 5762 5763 5764 5765 5765 5766 5766 5766 5766 5766 5766 5766